EDT,Max TemperatureF,Mean TemperatureF,Min TemperatureF,Max Dew PointF,MeanDew PointF,Min DewpointF,Max Humidity, Mean Humidity, Min Humidity, Max Sea Level PressureIn, Mean Sea Level PressureIn, Min Sea Level PressureIn, Max VisibilityMiles, Mean VisibilityMiles, Min VisibilityMiles, Max Wind SpeedMPH, Mean Wind SpeedMPH, Max Gust SpeedMPH,PrecipitationIn, CloudCover, Events, WindDirDegrees
2013-8-1,78,65,52,63,57,52,100,77,54,30.07,29.98,29.87,10,6,0,22,8,28,0.06,5,Fog-Rain,171
2013-8-2,75,65,55,63,57,51,100,73,46,29.90,29.87,29.83,10,7,1,18,3,25,0.16,4,Rain-Thunderstorm,247
2013-8-3,73,64,54,59,55,52,100,77,53,29.89,29.85,29.82,10,7,0,22,5,28,0.16,5,Fog-Rain,280
2013-8-4,68,60,51,56,54,51,100,82,63,29.98,29.91,29.86,10,10,3,18,5,28,0.24,3,Rain-Thunderstorm,304
2013-8-5,66,56,46,54,46,33,93,62,31,30.11,30.03,29.97,10,10,10,21,8,31,0.01,2,Rain,308
2013-8-6,74,59,44,55,47,43,100,69,38,30.19,30.15,30.11,10,6,0,10,2,24,0.00,4,Fog,176
2013-8-7,76,63,50,57,53,50,100,73,46,30.21,30.16,30.07,10,9,1,22,8,26,T,3,,171
2013-8-8,82,73,63,67,63,57,93,78,62,30.06,30.03,30.00,10,10,10,15,7,18,T,6,Rain-Thunderstorm,185
2013-8-9,74,69,63,70,66,62,100,92,84,30.01,29.92,29.82,10,7,2,16,2,22,0.54,6,Rain-Thunderstorm,190
2013-8-10,70,59,48,64,54,47,93,69,44,30.09,29.95,29.84,10,9,2,17,7,24,0.00,1,,312
2013-8-11,73,61,48,56,51,47,96,72,47,30.14,30.09,30.05,10,10,10,10,2,14,0.00,3,,266
2013-8-12,75,63,50,60,54,50,100,72,44,30.07,30.03,29.96,10,7,0,16,2,20,0.00,3,Fog,305
2013-8-13,71,63,54,63,58,54,100,87,73,29.92,29.84,29.73,10,6,0,17,5,22,0.16,7,Fog-Rain,181
2013-8-14,66,57,48,58,53,46,100,82,63,30.01,29.80,29.72,10,8,1,18,7,25,0.11,6,Rain,268
2013-8-15,69,57,45,52,47,43,100,71,42,30.10,30.07,30.02,10,8,1,10,4,17,0.00,1,,260
2013-8-16,74,60,45,58,52,48,93,67,41,30.27,30.20,30.18,10,9,1,10,2,17,T,3,,289
2013-8-17,74,63,51,57,54,50,100,73,46,30.36,30.32,30.29,10,5,0,13,3,16,0.01,4,Fog,332
2013-8-18,75,63,50,58,52,49,100,71,41,30.35,30.30,30.14,10,4,0,8,1,13,0.00,4,Fog,208
2013-8-19,78,64,50,59,54,50,100,75,50,30.14,30.09,30.03,10,6,0,16,3,21,0.00,2,Fog,319
2013-8-20,80,67,53,62,56,53,100,73,45,30.15,30.11,30.06,10,4,0,10,3,15,0.00,3,Fog,296
2013-8-21,83,69,54,64,58,54,100,73,45,30.21,30.16,30.06,10,5,0,10,3,14,0.00,3,Fog,224
2013-8-22,83,72,60,65,62,58,97,72,46,30.07,29.94,29.88,10,8,1,25,4,35,0.48,4,Rain-Thunderstorm,236
2013-8-23,70,59,47,61,54,47,97,72,47,30.25,30.07,29.92,10,10,10,18,5,22,0.00,2,,316
2013-8-24,73,59,45,53,48,43,100,69,37,30.41,30.34,30.26,10,6,0,8,1,14,0.00,2,Fog,305
2013-8-25,76,61,45,58,50,41,100,66,31,30.45,30.36,30.20,10,6,0,10,2,16,0.03,3,Fog-Rain,211
2013-8-26,73,67,60,67,63,57,100,87,73,30.18,30.01,29.94,10,7,2,13,2,15,0.11,8,Rain,188
2013-8-27,80,71,62,67,65,62,100,81,62,29.98,29.95,29.91,10,6,0,9,2,12,0.00,5,Fog,360
2013-8-28,82,72,62,67,64,61,100,77,54,30.05,29.97,29.90,10,5,0,13,2,17,0.00,5,Fog,20
2013-8-29,76,67,58,63,61,57,100,80,60,30.13,30.08,30.02,10,10,2,12,3,16,0.07,6,Rain,173
2013-8-30,82,72,61,68,62,61,100,76,51,30.06,29.96,29.82,10,7,1,16,3,24,0.00,6,Thunderstorm,243
2013-8-31,73,70,67,68,66,61,100,82,64,29.86,29.84,29.81,10,7,2,13,3,16,0.19,8,Rain,168